Volk, WI

1:43 AM CDT on August 17, 2017 (GMT -0500)
Volk

Weather History for KVOK - November, 2014

Change the Weather History Date:

Tuesday, November 25, 2014

  Actual Average Record
Temperature  
Mean Temperature 16 °F -  
Max Temperature 23 °F 36 °F 57 °F (1998)
Min Temperature 8 °F 24 °F 5 °F (1996)
Degree Days  
Heating Degree Days 50    
Moisture  
Dew Point 17 °F    
Average Humidity 96    
Maximum Humidity 100    
Minimum Humidity 80    
Precipitation  
Precipitation 0.00 in - - ()
Snow  
Snow 0.00 in - - ()
Snow Depth 3.00 in    
Sea Level Pressure  
Sea Level Pressure 30.01 in    
Wind  
Wind Speed 11 mph (West)    
Max Wind Speed 15 mph    
Max Gust Speed -    
Visibility 5 miles    
Events Fog , Snow    
Averages and records for this station are not official NWS values.
T = Trace of Precipitation, MM = Missing Value Source: NWS Daily Summary

Daily Weather History Graph

Daily Weather History Graph

Search for Another Location

Airport or City:

Trip Planner

Search our weather history database for the weather conditions in past years. The results will help you decide how hot, cold, wet, or windy it might be!

Date:

Astronomy

Nov. 25, 2014 Rise Set
Actual Time 7:08 AM CST 4:27 PM CST
Civil Twilight 6:36 AM CST 4:59 PM CST
Nautical Twilight 6:01 AM CST 5:34 PM CST
Astronomical Twilight 5:26 AM CST 6:09 PM CST
Moon 9:52 AM CST (11/25) 7:54 PM CST (11/25)
Length of Visible Light 10h 22m
Length of Day
9h 18m
Waxing Crescent, 13% of the Moon is Illuminated
Nov 25
Waxing Crescent
Nov 29
First Quarter
Dec 6
Full
Dec 14
Last Quarter
Dec 21
New

Hourly Weather History & Observations

Time (CST) Temp. Windchill Dew Point Humidity Pressure Visibility Wind Dir Wind Speed Gust Speed Precip Events Conditions
12:58 AM 21.7 °F 9.0 °F 21.4 °F 99% 29.86 in 0.2 mi West 13.8 mph - 0.00 in Fog , Snow Light Freezing Fog
12:59 AM 21.2 °F 7.8 °F 21.2 °F 100% 29.81 in 0.2 mi West 15.0 mph - N/A Fog Light Freezing Fog
1:16 AM 21.2 °F 8.9 °F 21.2 °F 100% 29.82 in 0.2 mi West 12.7 mph - N/A Fog , Snow Light Freezing Fog
1:21 AM 21.2 °F 7.8 °F 21.2 °F 100% 29.82 in 0.2 mi West 15.0 mph - N/A Fog , Snow Light Freezing Fog
1:56 AM 21.2 °F 7.8 °F 21.2 °F 100% 29.84 in 0.2 mi West 15.0 mph - N/A Fog , Snow Light Freezing Fog
1:58 AM 21.2 °F 7.8 °F 21.2 °F 100% 29.89 in 0.2 mi West 15.0 mph - 0.00 in Fog , Snow Light Freezing Fog
2:08 AM 21.2 °F 8.3 °F 21.2 °F 100% 29.85 in 0.2 mi West 13.8 mph - N/A Fog , Snow Light Freezing Fog
2:13 AM 21.2 °F 7.8 °F 21.2 °F 100% 29.85 in 0.2 mi West 15.0 mph - N/A Fog , Snow Light Freezing Fog
2:43 AM 21.2 °F 8.9 °F 19.4 °F 93% 29.86 in 0.2 mi West 12.7 mph - N/A Fog , Snow Light Freezing Fog
2:58 AM 20.3 °F 7.2 °F 20.1 °F 99% 29.91 in 0.2 mi West 13.8 mph - 0.00 in Fog , Snow Light Freezing Fog
3:14 AM 19.4 °F 7.2 °F 19.4 °F 100% 29.87 in 0.2 mi West 11.5 mph - N/A Fog Light Freezing Fog
3:58 AM 20.1 °F 6.9 °F 19.8 °F 99% 29.94 in 0.2 mi West 13.8 mph - 0.00 in Fog Light Freezing Fog
4:53 AM 17.6 °F 5.0 °F 17.6 °F 100% 29.92 in 0.2 mi West 11.5 mph - N/A Fog Light Freezing Fog
4:58 AM 18.5 °F 6.8 °F 18.1 °F 98% 29.98 in 0.2 mi West 10.4 mph - N/A Fog Light Freezing Fog
5:58 AM 19.4 °F 8.6 °F 17.6 °F 93% 30.01 in 0.2 mi WNW 9.2 mph - N/A Fog Light Freezing Fog
5:59 AM 19.4 °F 8.6 °F 17.6 °F 93% 29.95 in 0.2 mi West 9.2 mph - N/A Fog , Snow Light Freezing Fog
6:42 AM 19.4 °F 5.5 °F 17.6 °F 93% 29.97 in 0.2 mi West 15.0 mph - N/A Fog Light Freezing Fog
6:44 AM 19.4 °F 6.0 °F 17.6 °F 93% 29.97 in 10.0 mi West 13.8 mph - N/A Snow Light Snow
6:58 AM 19.4 °F 7.9 °F 17.6 °F 93% 30.04 in 10.0 mi West 10.4 mph - N/A Snow Light Snow
7:58 AM 17.6 °F 4.3 °F 17.6 °F 100% 30.05 in 7.0 mi West 12.7 mph - N/A Snow Light Snow
8:58 AM 17.6 °F 7.3 °F 15.8 °F 93% 30.08 in 7.0 mi West 8.1 mph - N/A Snow Light Snow
9:58 AM 17.6 °F 5.7 °F 15.8 °F 93% 30.09 in 10.0 mi West 10.4 mph - N/A Snow Light Snow
10:58 AM 19.4 °F 8.6 °F 15.8 °F 86% 30.11 in 10.0 mi West 9.2 mph - N/A   Mostly Cloudy
11:58 AM 19.4 °F 12.8 °F 17.6 °F 93% 30.11 in 10.0 mi Variable 4.6 mph - N/A   Overcast
12:58 PM 21.2 °F 12.6 °F 17.6 °F 86% 30.11 in 10.0 mi West 6.9 mph - N/A   Mostly Cloudy
1:58 PM 21.2 °F 12.6 °F 17.6 °F 86% 30.12 in 10.0 mi NW 6.9 mph - N/A   Scattered Clouds
2:59 PM 23.0 °F 15.8 °F 17.6 °F 80% 30.12 in 10.0 mi West 5.8 mph - N/A   Scattered Clouds
3:58 PM 21.2 °F - 17.6 °F 86% 30.13 in 10.0 mi Calm Calm - N/A   Partly Cloudy
4:58 PM 17.6 °F - 17.6 °F 100% 30.15 in 10.0 mi Calm Calm - N/A   Partly Cloudy
5:58 PM 10.4 °F 4.0 °F 10.4 °F 100% 30.15 in 10.0 mi ESE 3.5 mph - N/A   Partly Cloudy
6:58 PM 8.6 °F 0.1 °F 8.6 °F 100% 30.16 in 10.0 mi SE 4.6 mph - N/A   Partly Cloudy
7:58 PM 10.4 °F - 10.4 °F 100% 30.15 in 10.0 mi SE 2.3 mph - N/A   Scattered Clouds
8:58 PM 12.2 °F - 12.2 °F 100% 30.15 in 10.0 mi Calm Calm - N/A   Mostly Cloudy
9:58 PM 14.0 °F - 14.0 °F 100% 30.17 in 10.0 mi Calm Calm - N/A   Mostly Cloudy
10:58 PM 15.8 °F - 15.8 °F 100% 30.18 in 10.0 mi ESE 2.3 mph - N/A   Mostly Cloudy
11:58 PM 15.1 °F - 15.1 °F 100% 30.18 in 10.0 mi Calm Calm - N/A   Scattered Clouds